Regional Weather Roundup
Issued by NWS Boston, MA

Home | Current Version | Previous Version | Text Only | Print | Product List | Glossary On
Versions: 1 2 3 4 5 6 7 8 9 10 11 12 13 14 15 16 17 18 19 20 21 22 23 24 25 26 27 28 29 30 31 32 33 34 35 36 37 38 39 40 41 42 43 44 45 46 47 48 49 50
000
ASUS41 KBOX 070610
RWRBOX

REGIONAL WEATHER ROUNDUP
NATIONAL WEATHER SERVICE TAUNTON MA
200 AM EDT THU MAY 07 2015

NOTE:  "FAIR" INDICATES FEW OR NO CLOUDS BELOW 12,000 FEET WITH NO
SIGNIFICANT WEATHER AND/OR OBSTRUCTIONS TO VISIBILITY.  THE FOLLOWING
OBSERVATION LOCATIONS DO NOT REPORT PRESENT WEATHER...PROVINCETOWN...
SMITHFIELD...BLOCK ISLAND...KEENE...AND OXFORD.

MAZALL-070700-
EASTERN MASSACHUSETTS

CITY           SKY/WX    TMP DP  RH WIND       PRES   REMARKS
BOSTON         CLEAR     57  30  35 SW8       30.20F
6HR MIN TEMP:  57; 6HR MAX TEMP:  66;

BEVERLY        CLEAR     56  30  37 W3        30.18F
LAWRENCE       CLEAR     53  34  48 SW6       30.20F
BEDFORD        CLEAR     54  30  40 MISG      30.18F
BLUE HILL        N/A     54  30  40 SW14      30.19F
NORWOOD        CLEAR     45  35  68 CALM      30.20F
MARSHFIELD     CLEAR     54  32  43 W7        30.21S
PLYMOUTH       CLEAR     46  34  62 SW3       30.21F
TAUNTON        CLEAR     41  38  89 CALM      30.20F
NEW BEDFORD    CLEAR     42  36  79 CALM      30.20F
$$

MAZALL-070700-
CAPE COD AND THE ISLANDS

CITY           SKY/WX    TMP DP  RH WIND       PRES   REMARKS
FALMOUTH       CLEAR     48  37  66 W7        30.21F
HYANNIS        CLEAR     49  36  61 SW6       30.19F
CHATHAM        CLEAR     51  34  52 W5        30.21F
PROVINCETOWN   CLEAR     46  39  76 SW6       30.21F
NANTUCKET      CLEAR     47  42  83 W5        30.21S
MARTHAS VNYRD  CLEAR     43  36  76 W3        30.21F
$$

MAZALL-070700-
CENTRAL AND WESTERN MASSACHUSETTS

CITY           SKY/WX    TMP DP  RH WIND       PRES   REMARKS
WORCESTER      CLEAR     54  32  43 W12       30.20F
6HR MIN TEMP:  53; 6HR MAX TEMP:  65;

FITCHBURG      CLEAR     57  33  40 N9        30.19F
ORANGE         CLEAR     44  38  79 CALM      30.22S
SPRINGFIELD    CLEAR     44  37  76 NE3       30.20F
WESTFIELD      CLEAR     49  35  58 CALM      30.21F
NORTH ADAMS    CLEAR     44  39  82 CALM      30.23S
$$

RIZALL-070700-
RHODE ISLAND

CITY           SKY/WX    TMP DP  RH WIND       PRES   REMARKS
PROVIDENCE     CLEAR     49  34  56 SW3       30.22F
6HR MIN TEMP:  47; 6HR MAX TEMP:  59;

NEWPORT        CLEAR     48  32  53 CALM      30.21F
BLOCK ISLAND   CLEAR     52  36  54 NW3       30.22F
SMITHFIELD     CLEAR     46  27  46 W3        30.20F
WESTERLY       CLEAR     42  37  82 CALM      30.23F
$$

CTZALL-070700-
CONNECTICUT

CITY           SKY/WX    TMP DP  RH WIND       PRES   REMARKS
BRADLEY INTL   CLEAR     52  33  48 S3        30.21F
6HR MIN TEMP:  52; 6HR MAX TEMP:  68;

HARTFORD       CLEAR     47  38  71 SE8       30.22F
BRIDGEPORT     CLEAR     51  40  65 CALM      30.23F
DANBURY        CLEAR     44  38  79 CALM      30.24F
GROTON         CLEAR     43  35  73 CALM      30.22F
NEW HAVEN      CLEAR     44  38  79 CALM      30.23F
CHESTER        NOT AVBL
MERIDEN        CLEAR     44  37  76 CALM      30.23F
WILLIMANTIC    CLEAR     44  36  73 CALM      30.23F
OXFORD         CLEAR     48  30  49 CALM      30.25F
$$

MEZ002-015-021-024-NHZ003-005-008-011-012-014-VTZ005-008-070700-
NORTHERN NEW ENGLAND

CITY           SKY/WX    TMP DP  RH WIND       PRES   REMARKS
PORTLAND ME    CLEAR     49  40  71 S3        30.15F
6HR MIN TEMP:  49; 6HR MAX TEMP:  62;

BANGOR ME      CLOUDY    57  37  47 W9        30.11S
CONCORD NH     CLEAR     47  38  71 CALM      30.19S
MANCHESTER NH  CLEAR     57  37  47 N3        30.17F
NASHUA NH      CLEAR     52  39  61 CALM      30.19F
PORTSMOUTH NH  CLEAR     56  37  47 SW8       30.15F
JAFFREY NH     CLEAR     46  38  73 SE3       30.22S
KEENE NH       CLEAR     46  39  76 CALM      30.22S
BURLINGTON VT  CLEAR     52  38  58 E3        30.16F
MT. WASHINGTON PTCLDY    37  28  70 NW45        N/A  WCI  23
$$

NYZ052-076-070700-
EASTERN NEW YORK

CITY           SKY/WX    TMP DP  RH WIND       PRES   REMARKS
ALBANY         CLEAR     58  40  51 CALM      30.21S
6HR MIN TEMP:  55; 6HR MAX TEMP:  71;

NEW YORK CITY  CLEAR     56  45  66 CALM      30.23F
6HR MIN TEMP:  56; 6HR MAX TEMP:  67;

$$

ANZALL-070700-
MARINE OBSERVATIONS

STATION/POSITION TIME  TEMP    WIND        PRES    VSBY  WAVE
                       AIR SEA DIR/SP/G                  HT/PER
                 (UTC) (F)     (DEG/KT/KT) (MB)    (MI)  (FT/S)
BOSTON BUOY      0550   52 48  260/  6/  8   N/A           1/ 7
BUZZARDS BAY     0500          270/ 10/ 10   N/A
NANTUCKET SOUND  0550   52 51  270/  6/  8   N/A           1
MASS BAY-STELLWA 0504   51 48  220/ 10/ 10   N/A    1 7/8  1/ 6
ISLE OF SHOALS   0500   61     230/ 14/ 15   N/A
S OF BLOCK IS    0508      47                N/A           2/ 7
$$

......................KEY.........................
  SKY/WX - SKY CONDITION/PRESENT WEATHER
  TMP    - TEMPERATURE IN FAHRENHEIT
  DWPT   - DEWPOINT IN FAHRENHEIT
  RH     - RELATIVE HUMIDITY IN PERCENT
  WIND   - DIRECTION AND SPEED IN MPH
  PRES   - MEAN SEA LEVEL PRESSURE IN INCHES OF HG
  WCI    - WIND CHILL INDEX
  VSB    - VISIBILITY IN MILES
  HX     - HEAT INDEX
  TC     - TEMPERATURE IN CELSIUS
  VRB    - VARIABLE WIND DIRECTION
  N/A    - NOT AVAILABLE


USA.gov is the U.S. government's official web portal to all federal, state and local government web resources and services.